Location: Robledo de Chavela
(40.5014°N, 4.2377°W)
Time: 16:31:03
(UTC+00:00)

SL-4 R/B - Pass Details

Date: 18 April 2024
Orbit: 413 x 603 km, 51.6° (Epoch: 23 May)

Event Time Altitude Azimuth Distance (km) Brightness Sun altitude
Rises 20:12:35 0° 305° (NW) 2,535 7.4 -13.7°
Reaches altitude 10° 20:15:37 10° 330° (NNW) 1,611 5.3 -14.2°
Maximum altitude 20:17:40 14° 5° (N) 1,338 4.3 -14.5°
Drops below altitude 10° 20:19:40 10° 40° (NE) 1,558 4.2 -14.9°
Enters shadow 20:20:40 - 52° (NE) 1,809 4.4 -15.0°
